{"data":{"norad_id":64081,"epoch":"2026-05-25T05:16:42.053088Z","epoch_age_seconds":59482,"freshness":"FRESH","line1":"1 64081U 25107T   26145.21993117  .00021971  00000+0  80497-3 0  9995","line2":"2 64081  42.9998 129.4409 0001306 264.6749  95.3954 15.27603726 57825","mean_motion":15.27603726,"eccentricity":0.0001306,"inclination_deg":42.9998,"raan_deg":129.4409,"arg_perigee_deg":264.6749,"mean_anomaly_deg":95.3954,"bstar":0.00080497,"rev_number":5782,"period_min":94.265284608241,"perigee_km":482.0819911539,"apogee_km":483.87411440568,"semimajor_km":6861.1150527798,"source":"CELESTRAK","updated_at":"2026-05-25T13:38:20.261521Z"}}